Time,TemperatureF,DewpointF,PressureIn,WindDirection,WindDirectionDegrees,WindSpeedMPH,WindSpeedGustMPH,Humidity,HourlyPrecipIn,Conditions,Clouds,dailyrainin,SoftwareType,DateUTC
2013-06-10 00:02:00,56.3,22.8,24.72,SW,226,0.0,0.0,27,0.00,,---,0.00,VWS V14.01,2013-06-10 06:02:00,
2013-06-10 00:07:00,56.1,22.6,24.72,WSW,248,0.0,0.0,27,0.00,,---,0.00,VWS V14.01,2013-06-10 06:07:00,
2013-06-10 00:12:00,55.9,22.5,24.72,ENE,75,0.0,0.0,27,0.00,,---,0.00,VWS V14.01,2013-06-10 06:12:00,
2013-06-10 00:17:00,55.8,23.2,24.72,West,271,0.0,0.0,28,0.00,,---,0.00,VWS V14.01,2013-06-10 06:17:00,
2013-06-10 00:22:00,55.8,23.2,24.72,West,271,0.0,0.0,28,0.00,,---,0.00,VWS V14.01,2013-06-10 06:22:00,
2013-06-10 00:27:00,55.4,22.9,24.72,West,271,0.0,0.0,28,0.00,,---,0.00,VWS V14.01,2013-06-10 06:27:00,
2013-06-10 00:32:00,55.0,23.4,24.72,West,271,0.0,0.0,29,0.00,,---,0.00,VWS V14.01,2013-06-10 06:32:00,
2013-06-10 00:37:00,54.5,23.7,24.72,SW,226,0.0,0.0,30,0.00,,---,0.00,VWS V14.01,2013-06-10 06:37:00,
2013-06-10 00:42:00,54.1,23.4,24.72,SW,226,0.0,0.0,30,0.00,,---,0.00,VWS V14.01,2013-06-10 06:42:00,
2013-06-10 00:47:00,53.8,23.9,24.72,SW,222,0.0,0.0,31,0.00,,---,0.00,VWS V14.01,2013-06-10 06:47:00,
2013-06-10 00:52:00,53.2,23.4,24.69,SW,223,0.0,0.0,31,0.00,,---,0.00,VWS V14.01,2013-06-10 06:52:00,
2013-06-10 00:57:00,53.4,25.1,24.69,NW,319,0.0,3.1,33,0.00,,---,0.00,VWS V14.01,2013-06-10 06:57:00,
2013-06-10 01:02:00,53.2,24.9,24.69,West,272,0.0,0.0,33,0.00,,---,0.00,VWS V14.01,2013-06-10 07:02:00,
2013-06-10 01:07:00,53.1,24.7,24.72,West,272,0.0,0.0,33,0.00,,---,0.00,VWS V14.01,2013-06-10 07:07:00,
2013-06-10 01:12:00,52.9,25.3,24.72,West,272,0.0,0.0,34,0.00,,---,0.00,VWS V14.01,2013-06-10 07:12:00,
2013-06-10 01:17:00,52.5,25.0,24.72,West,272,0.0,0.0,34,0.00,,---,0.00,VWS V14.01,2013-06-10 07:17:00,
2013-06-10 01:22:00,52.5,25.7,24.69,West,272,0.0,0.0,35,0.00,,---,0.00,VWS V14.01,2013-06-10 07:22:00,
2013-06-10 01:27:00,52.7,25.1,24.69,West,271,0.0,0.0,34,0.00,,---,0.00,VWS V14.01,2013-06-10 07:27:00,
2013-06-10 01:32:00,52.7,25.8,24.69,WNW,291,0.0,0.0,35,0.00,,---,0.00,VWS V14.01,2013-06-10 07:32:00,
2013-06-10 01:37:00,52.5,25.7,24.72,West,263,0.0,2.2,35,0.00,,---,0.00,VWS V14.01,2013-06-10 07:37:00,
2013-06-10 01:42:00,52.3,26.2,24.72,West,263,0.0,0.0,36,0.00,,---,0.00,VWS V14.01,2013-06-10 07:42:00,
2013-06-10 01:47:00,52.0,25.9,24.72,West,263,0.0,0.0,36,0.00,,---,0.00,VWS V14.01,2013-06-10 07:47:00,
2013-06-10 01:52:00,51.8,25.7,24.72,West,263,0.0,0.0,36,0.00,,---,0.00,VWS V14.01,2013-06-10 07:52:00,
2013-06-10 01:57:00,51.6,25.6,24.72,WSW,247,0.0,0.0,36,0.00,,---,0.00,VWS V14.01,2013-06-10 07:57:00,
2013-06-10 02:02:00,51.3,25.9,24.72,WSW,247,0.0,0.0,37,0.00,,---,0.00,VWS V14.01,2013-06-10 08:02:00,
2013-06-10 02:07:00,50.9,25.6,24.72,WSW,247,0.0,0.0,37,0.00,,---,0.00,VWS V14.01,2013-06-10 08:07:00,
2013-06-10 02:12:00,50.5,25.2,24.72,WSW,247,0.0,0.0,37,0.00,,---,0.00,VWS V14.01,2013-06-10 08:12:00,
2013-06-10 02:17:00,50.5,25.2,24.72,WSW,247,0.0,0.0,37,0.00,,---,0.00,VWS V14.01,2013-06-10 08:17:00,
2013-06-10 02:22:00,50.4,25.7,24.72,WSW,247,0.0,0.0,38,0.00,,---,0.00,VWS V14.01,2013-06-10 08:22:00,
2013-06-10 02:27:00,50.2,24.9,24.72,WSW,251,4.9,4.9,37,0.00,,---,0.00,VWS V14.01,2013-06-10 08:27:00,
2013-06-10 02:32:00,50.2,24.9,24.72,West,266,0.0,0.0,37,0.00,,---,0.00,VWS V14.01,2013-06-10 08:32:00,
2013-06-10 02:37:00,49.8,25.2,24.72,West,264,2.7,3.6,38,0.00,,---,0.00,VWS V14.01,2013-06-10 08:37:00,
2013-06-10 02:42:00,49.6,25.7,24.72,WNW,284,2.7,3.6,39,0.00,,---,0.00,VWS V14.01,2013-06-10 08:42:00,
2013-06-10 02:47:00,49.3,25.4,24.72,West,260,4.0,4.0,39,0.00,,---,0.00,VWS V14.01,2013-06-10 08:47:00,
2013-06-10 02:52:00,49.1,25.2,24.72,West,260,3.1,3.6,39,0.00,,---,0.00,VWS V14.01,2013-06-10 08:52:00,
2013-06-10 02:57:00,48.9,25.7,24.72,WSW,247,4.0,4.0,40,0.00,,---,0.00,VWS V14.01,2013-06-10 08:57:00,
2013-06-10 03:02:00,48.7,25.5,24.72,WSW,250,3.1,3.1,40,0.00,,---,0.00,VWS V14.01,2013-06-10 09:02:00,
2013-06-10 03:07:00,48.7,25.5,24.72,West,269,6.3,6.3,40,0.00,,---,0.00,VWS V14.01,2013-06-10 09:07:00,
2013-06-10 03:12:00,48.7,26.1,24.72,West,279,2.7,3.1,41,0.00,,---,0.00,VWS V14.01,2013-06-10 09:12:00,
2013-06-10 03:17:00,49.1,25.8,24.72,West,268,3.6,3.6,40,0.00,,---,0.00,VWS V14.01,2013-06-10 09:17:00,
2013-06-10 03:22:00,49.3,26.6,24.72,WSW,254,5.4,5.4,41,0.00,,---,0.00,VWS V14.01,2013-06-10 09:22:00,
2013-06-10 03:27:00,49.3,27.2,24.72,West,269,5.4,5.4,42,0.00,,---,0.00,VWS V14.01,2013-06-10 09:27:00,
2013-06-10 03:32:00,48.9,26.9,24.72,West,268,2.7,2.7,42,0.00,,---,0.00,VWS V14.01,2013-06-10 09:32:00,
2013-06-10 03:37:00,48.7,26.7,24.72,WNW,294,2.7,3.6,42,0.00,,---,0.00,VWS V14.01,2013-06-10 09:37:00,
2013-06-10 03:42:00,48.0,27.2,24.72,NNW,333,5.8,5.8,44,0.00,,---,0.00,VWS V14.01,2013-06-10 09:42:00,
2013-06-10 03:47:00,47.5,27.8,24.72,WSW,250,7.6,7.6,46,0.00,,---,0.00,VWS V14.01,2013-06-10 09:47:00,
2013-06-10 03:52:00,46.9,27.8,24.72,West,280,5.8,5.8,47,0.00,,---,0.00,VWS V14.01,2013-06-10 09:52:00,
2013-06-10 03:57:00,46.6,28.5,24.72,West,271,5.4,5.8,49,0.00,,---,0.00,VWS V14.01,2013-06-10 09:57:00,
2013-06-10 04:02:00,46.0,28.0,24.72,WSW,250,5.8,5.8,49,0.00,,---,0.00,VWS V14.01,2013-06-10 10:02:00,
2013-06-10 04:07:00,46.0,28.0,24.72,West,262,6.3,7.6,49,0.00,,---,0.00,VWS V14.01,2013-06-10 10:07:00,
2013-06-10 04:12:00,46.0,28.5,24.72,West,268,6.3,6.3,50,0.00,,---,0.00,VWS V14.01,2013-06-10 10:12:00,
2013-06-10 04:17:00,45.9,27.8,24.72,West,272,5.8,6.3,49,0.00,,---,0.00,VWS V14.01,2013-06-10 10:17:00,
2013-06-10 04:22:00,46.0,28.0,24.72,WSW,250,5.4,5.8,49,0.00,,---,0.00,VWS V14.01,2013-06-10 10:22:00,
2013-06-10 04:27:00,45.9,28.3,24.72,WSW,258,6.3,6.3,50,0.00,,---,0.00,VWS V14.01,2013-06-10 10:27:00,
2013-06-10 04:32:00,45.5,28.0,24.72,West,263,5.8,6.3,50,0.00,,---,0.00,VWS V14.01,2013-06-10 10:32:00,
2013-06-10 04:37:00,45.3,27.8,24.72,WSW,258,6.3,6.3,50,0.00,,---,0.00,VWS V14.01,2013-06-10 10:37:00,
2013-06-10 04:42:00,45.1,27.6,24.72,West,272,7.6,7.6,50,0.00,,---,0.00,VWS V14.01,2013-06-10 10:42:00,
2013-06-10 04:47:00,45.1,27.6,24.72,West,276,5.4,6.3,50,0.00,,---,0.00,VWS V14.01,2013-06-10 10:47:00,
2013-06-10 04:52:00,45.1,28.1,24.72,WSW,250,6.3,6.3,51,0.00,,---,0.00,VWS V14.01,2013-06-10 10:52:00,
2013-06-10 04:57:00,45.1,28.1,24.72,WSW,245,8.7,8.7,51,0.00,,---,0.00,VWS V14.01,2013-06-10 10:57:00,
2013-06-10 05:02:00,45.0,27.9,24.72,WSW,250,6.3,6.3,51,0.00,,---,0.00,VWS V14.01,2013-06-10 11:02:00,
2013-06-10 05:07:00,45.1,28.1,24.72,West,264,7.6,7.6,51,0.00,,---,0.00,VWS V14.01,2013-06-10 11:07:00,
2013-06-10 05:12:00,45.1,28.6,24.72,WSW,250,6.3,7.6,52,0.00,,---,0.00,VWS V14.01,2013-06-10 11:12:00,
2013-06-10 05:17:00,45.1,28.6,24.72,WSW,249,4.9,5.4,52,0.00,,---,0.00,VWS V14.01,2013-06-10 11:17:00,
2013-06-10 05:22:00,45.1,28.6,24.72,WSW,254,5.8,5.8,52,0.00,,---,0.00,VWS V14.01,2013-06-10 11:22:00,
2013-06-10 05:27:00,45.1,28.6,24.72,West,274,2.7,5.4,52,0.00,,---,0.00,VWS V14.01,2013-06-10 11:27:00,
2013-06-10 05:32:00,44.8,27.8,24.72,West,281,4.9,4.9,51,0.00,,---,0.00,VWS V14.01,2013-06-10 11:32:00,
2013-06-10 05:37:00,44.6,28.1,24.72,West,279,3.1,4.0,52,0.00,,---,0.00,VWS V14.01,2013-06-10 11:37:00,
2013-06-10 05:42:00,44.2,28.2,24.72,West,265,6.3,6.3,53,0.00,,---,0.00,VWS V14.01,2013-06-10 11:42:00,
2013-06-10 05:47:00,44.2,28.7,24.72,WSW,254,7.6,8.3,54,0.00,,---,0.00,VWS V14.01,2013-06-10 11:47:00,
2013-06-10 05:52:00,44.4,28.8,24.72,West,281,4.9,5.8,54,0.00,,---,0.00,VWS V14.01,2013-06-10 11:52:00,
2013-06-10 05:57:00,44.2,29.1,24.72,West,263,7.6,7.6,55,0.00,,---,0.00,VWS V14.01,2013-06-10 11:57:00,
2013-06-10 06:02:00,44.1,28.9,24.72,WNW,287,6.3,6.3,55,0.00,,---,0.00,VWS V14.01,2013-06-10 12:02:00,
2013-06-10 06:07:00,44.1,28.5,24.72,West,264,4.9,6.3,54,0.00,,---,0.00,VWS V14.01,2013-06-10 12:07:00,
2013-06-10 06:12:00,44.1,28.5,24.72,WSW,248,5.8,5.8,54,0.00,,---,0.00,VWS V14.01,2013-06-10 12:12:00,
2013-06-10 06:17:00,44.2,29.1,24.72,West,273,5.8,5.8,55,0.00,,---,0.00,VWS V14.01,2013-06-10 12:17:00,
2013-06-10 06:22:00,44.2,29.1,24.72,West,268,5.4,5.8,55,0.00,,---,0.00,VWS V14.01,2013-06-10 12:22:00,
2013-06-10 06:27:00,44.2,29.1,24.72,WNW,294,6.3,6.3,55,0.00,,---,0.00,VWS V14.01,2013-06-10 12:27:00,
2013-06-10 06:32:00,44.2,29.5,24.72,West,263,7.6,7.6,56,0.00,,---,0.00,VWS V14.01,2013-06-10 12:32:00,
2013-06-10 06:37:00,44.1,29.4,24.72,WSW,254,4.9,4.9,56,0.00,,---,0.00,VWS V14.01,2013-06-10 12:37:00,
2013-06-10 06:42:00,44.2,29.5,24.72,WNW,287,4.5,4.5,56,0.00,,---,0.00,VWS V14.01,2013-06-10 12:42:00,
2013-06-10 06:47:00,44.4,29.7,24.72,WSW,237,4.9,5.4,56,0.00,,---,0.00,VWS V14.01,2013-06-10 12:47:00,
2013-06-10 06:52:00,45.0,29.8,24.72,WNW,303,4.5,4.5,55,0.00,,---,0.00,VWS V14.01,2013-06-10 12:52:00,
2013-06-10 06:57:00,45.5,30.3,24.72,West,265,5.4,5.4,55,0.00,,---,0.00,VWS V14.01,2013-06-10 12:57:00,
2013-06-10 07:02:00,46.0,29.9,24.72,West,268,6.3,6.3,53,0.00,,---,0.00,VWS V14.01,2013-06-10 13:02:00,
2013-06-10 07:07:00,46.6,29.9,24.72,West,266,4.0,6.3,52,0.00,,---,0.00,VWS V14.01,2013-06-10 13:07:00,
2013-06-10 07:12:00,46.9,30.2,24.72,West,270,5.4,5.8,52,0.00,,---,0.00,VWS V14.01,2013-06-10 13:12:00,
2013-06-10 07:17:00,47.5,30.3,24.72,WNW,292,6.3,8.3,51,0.00,,---,0.00,VWS V14.01,2013-06-10 13:17:00,
2013-06-10 07:22:00,47.8,30.6,24.72,SW,228,4.0,4.9,51,0.00,,---,0.00,VWS V14.01,2013-06-10 13:22:00,
2013-06-10 07:27:00,48.2,30.5,24.72,WSW,254,6.3,6.3,50,0.00,,---,0.00,VWS V14.01,2013-06-10 13:27:00,
2013-06-10 07:32:00,48.6,30.3,24.72,West,265,4.5,6.3,49,0.00,,---,0.00,VWS V14.01,2013-06-10 13:32:00,
2013-06-10 07:37:00,48.9,30.6,24.72,WSW,258,5.4,5.8,49,0.00,,---,0.00,VWS V14.01,2013-06-10 13:37:00,
2013-06-10 07:42:00,49.5,30.6,24.72,West,264,4.0,4.0,48,0.00,,---,0.00,VWS V14.01,2013-06-10 13:42:00,
2013-06-10 07:47:00,50.2,31.3,24.72,West,280,5.4,5.4,48,0.00,,---,0.00,VWS V14.01,2013-06-10 13:47:00,
2013-06-10 07:52:00,50.5,31.1,24.72,WSW,253,4.0,4.0,47,0.00,,---,0.00,VWS V14.01,2013-06-10 13:52:00,
2013-06-10 07:57:00,50.9,31.4,24.72,West,266,3.1,4.0,47,0.00,,---,0.00,VWS V14.01,2013-06-10 13:57:00,
2013-06-10 08:02:00,51.4,31.9,24.72,West,277,3.1,4.0,47,0.00,,---,0.00,VWS V14.01,2013-06-10 14:02:00,
2013-06-10 08:07:00,51.8,31.7,24.72,West,266,0.0,0.0,46,0.00,,---,0.00,VWS V14.01,2013-06-10 14:07:00,
2013-06-10 08:12:00,52.5,31.8,24.72,West,269,0.0,0.0,45,0.00,,---,0.00,VWS V14.01,2013-06-10 14:12:00,
2013-06-10 08:17:00,53.2,31.3,24.72,West,269,0.0,0.0,43,0.00,,---,0.00,VWS V14.01,2013-06-10 14:17:00,
2013-06-10 08:22:00,54.1,29.8,24.72,NE,39,3.1,3.1,39,0.00,,---,0.00,VWS V14.01,2013-06-10 14:22:00,
2013-06-10 08:27:00,55.6,29.1,24.72,ENE,67,2.7,3.1,36,0.00,,---,0.00,VWS V14.01,2013-06-10 14:27:00,
2013-06-10 08:32:00,56.8,30.9,24.72,NE,55,0.0,0.0,37,0.00,,---,0.00,VWS V14.01,2013-06-10 14:32:00,
2013-06-10 08:37:00,57.6,30.8,24.72,ENE,57,2.7,2.7,36,0.00,,---,0.00,VWS V14.01,2013-06-10 14:37:00,
2013-06-10 08:42:00,58.1,29.2,24.72,ESE,109,3.1,3.1,33,0.00,,---,0.00,VWS V14.01,2013-06-10 14:42:00,
2013-06-10 08:47:00,58.3,30.8,24.72,NE,48,3.6,4.0,35,0.00,,---,0.00,VWS V14.01,2013-06-10 14:47:00,
2013-06-10 08:52:00,59.0,30.0,24.72,ENE,64,0.0,5.4,33,0.00,,---,0.00,VWS V14.01,2013-06-10 14:52:00,
2013-06-10 08:57:00,59.5,29.7,24.72,ENE,73,0.0,0.0,32,0.00,,---,0.00,VWS V14.01,2013-06-10 14:57:00,
2013-06-10 09:02:00,59.9,28.4,24.72,NE,45,5.8,8.1,30,0.00,,---,0.00,VWS V14.01,2013-06-10 15:02:00,
2013-06-10 09:07:00,59.9,28.4,24.72,NE,52,3.1,4.0,30,0.00,,---,0.00,VWS V14.01,2013-06-10 15:07:00,
2013-06-10 09:12:00,60.1,28.6,24.72,NE,36,0.0,0.0,30,0.00,,---,0.00,VWS V14.01,2013-06-10 15:12:00,
2013-06-10 09:17:00,60.4,28.9,24.72,East,84,5.8,5.8,30,0.00,,---,0.00,VWS V14.01,2013-06-10 15:17:00,
2013-06-10 09:22:00,60.8,28.4,24.72,NE,48,4.9,5.8,29,0.00,,---,0.00,VWS V14.01,2013-06-10 15:22:00,
2013-06-10 09:27:00,61.0,28.5,24.72,NE,38,6.3,7.2,29,0.00,,---,0.00,VWS V14.01,2013-06-10 15:27:00,
2013-06-10 09:32:00,61.0,28.5,24.72,NE,48,3.1,5.8,29,0.00,,---,0.00,VWS V14.01,2013-06-10 15:32:00,
2013-06-10 09:37:00,61.0,27.7,24.69,NE,38,3.6,4.9,28,0.00,,---,0.00,VWS V14.01,2013-06-10 15:37:00,
2013-06-10 09:42:00,61.0,28.5,24.69,North,1,3.1,3.1,29,0.00,,---,0.00,VWS V14.01,2013-06-10 15:42:00,
2013-06-10 09:47:00,61.3,28.0,24.69,NE,54,4.0,4.0,28,0.00,,---,0.00,VWS V14.01,2013-06-10 15:47:00,
2013-06-10 09:52:00,61.9,29.3,24.72,NNE,30,3.6,4.0,29,0.00,,---,0.00,VWS V14.01,2013-06-10 15:52:00,
2013-06-10 09:57:00,61.5,28.1,24.72,NE,37,3.1,4.9,28,0.00,,---,0.00,VWS V14.01,2013-06-10 15:57:00,
2013-06-10 10:02:00,61.5,29.0,24.72,NE,49,3.1,4.9,29,0.00,,---,0.00,VWS V14.01,2013-06-10 16:02:00,
2013-06-10 10:07:00,62.2,28.8,24.72,SE,146,4.0,4.0,28,0.00,,---,0.00,VWS V14.01,2013-06-10 16:07:00,
2013-06-10 10:12:00,61.7,29.1,24.72,NE,41,0.0,0.0,29,0.00,,---,0.00,VWS V14.01,2013-06-10 16:12:00,
2013-06-10 10:17:00,62.4,29.8,24.72,East,83,4.0,5.8,29,0.00,,---,0.00,VWS V14.01,2013-06-10 16:17:00,
2013-06-10 10:22:00,62.1,28.6,24.72,NE,56,5.4,5.4,28,0.00,,---,0.00,VWS V14.01,2013-06-10 16:22:00,
2013-06-10 10:27:00,62.6,29.1,24.72,NE,55,4.9,5.4,28,0.00,,---,0.00,VWS V14.01,2013-06-10 16:27:00,
2013-06-10 10:32:00,63.1,28.6,24.72,ENE,71,6.3,6.3,27,0.00,,---,0.00,VWS V14.01,2013-06-10 16:32:00,
2013-06-10 10:37:00,63.7,29.1,24.69,ENE,64,0.0,0.0,27,0.00,,---,0.00,VWS V14.01,2013-06-10 16:37:00,
2013-06-10 10:42:00,63.5,29.8,24.69,NE,44,0.0,0.0,28,0.00,,---,0.00,VWS V14.01,2013-06-10 16:42:00,
2013-06-10 10:47:00,63.7,30.0,24.69,NE,36,0.0,3.6,28,0.00,,---,0.00,VWS V14.01,2013-06-10 16:47:00,
2013-06-10 10:52:00,64.2,30.5,24.69,NE,55,4.9,4.9,28,0.00,,---,0.00,VWS V14.01,2013-06-10 16:52:00,
2013-06-10 10:57:00,64.2,30.5,24.69,NE,48,0.0,0.0,28,0.00,,---,0.00,VWS V14.01,2013-06-10 16:57:00,
2013-06-10 11:02:00,64.9,30.2,24.69,NNE,25,0.0,0.0,27,0.00,,---,0.00,VWS V14.01,2013-06-10 17:02:00,
2013-06-10 11:07:00,65.1,30.3,24.69,NE,37,3.6,4.0,27,0.00,,---,0.00,VWS V14.01,2013-06-10 17:07:00,
2013-06-10 11:12:00,66.0,31.1,24.69,NE,49,4.9,4.9,27,0.00,,---,0.00,VWS V14.01,2013-06-10 17:12:00,
2013-06-10 11:17:00,66.6,30.6,24.69,NE,38,5.4,6.3,26,0.00,,---,0.00,VWS V14.01,2013-06-10 17:17:00,
2013-06-10 11:22:00,66.6,30.6,24.69,North,0,0.0,0.0,26,0.00,,---,0.00,VWS V14.01,2013-06-10 17:22:00,
2013-06-10 11:27:00,66.2,30.3,24.69,ESE,108,4.9,4.9,26,0.00,,---,0.00,VWS V14.01,2013-06-10 17:27:00,
2013-06-10 11:32:00,65.8,30.0,24.69,NW,319,2.7,3.1,26,0.00,,---,0.00,VWS V14.01,2013-06-10 17:32:00,
2013-06-10 11:37:00,64.8,29.1,24.69,NNE,26,0.0,0.0,26,0.00,,---,0.00,VWS V14.01,2013-06-10 17:37:00,
2013-06-10 11:42:00,66.2,31.3,24.69,East,82,5.4,5.4,27,0.00,,---,0.00,VWS V14.01,2013-06-10 17:42:00,
2013-06-10 11:47:00,67.3,31.2,24.69,NE,40,4.0,4.0,26,0.00,,---,0.00,VWS V14.01,2013-06-10 17:47:00,
2013-06-10 11:52:00,67.6,30.6,24.69,NE,45,3.1,3.1,25,0.00,,---,0.00,VWS V14.01,2013-06-10 17:52:00,
2013-06-10 11:57:00,68.5,32.3,24.69,North,357,2.7,4.9,26,0.00,,---,0.00,VWS V14.01,2013-06-10 17:57:00,
2013-06-10 12:02:00,68.7,31.5,24.69,NNE,30,4.0,5.8,25,0.00,,---,0.00,VWS V14.01,2013-06-10 18:02:00,
2013-06-10 12:07:00,69.4,32.1,24.66,ENE,64,2.7,5.4,25,0.00,,---,0.00,VWS V14.01,2013-06-10 18:07:00,
2013-06-10 12:12:00,70.2,32.7,24.66,NE,49,4.0,5.8,25,0.00,,---,0.00,VWS V14.01,2013-06-10 18:12:00,
2013-06-10 12:17:00,70.2,31.7,24.66,SE,132,3.6,4.0,24,0.00,,---,0.00,VWS V14.01,2013-06-10 18:17:00,
2013-06-10 12:22:00,69.4,31.1,24.66,North,353,3.6,7.6,24,0.00,,---,0.00,VWS V14.01,2013-06-10 18:22:00,
2013-06-10 12:27:00,69.4,31.1,24.66,East,99,5.4,6.3,24,0.00,,---,0.00,VWS V14.01,2013-06-10 18:27:00,
2013-06-10 12:32:00,69.4,32.1,24.66,SE,127,4.0,4.0,25,0.00,,---,0.00,VWS V14.01,2013-06-10 18:32:00,
2013-06-10 12:37:00,70.0,32.6,24.66,ENE,57,3.6,4.9,25,0.00,,---,0.00,VWS V14.01,2013-06-10 18:37:00,
2013-06-10 12:42:00,70.9,32.3,24.66,SSE,150,4.9,5.4,24,0.00,,---,0.00,VWS V14.01,2013-06-10 18:42:00,
2013-06-10 12:47:00,69.3,32.0,24.66,NE,55,2.2,6.3,25,0.00,,---,0.00,VWS V14.01,2013-06-10 18:47:00,
2013-06-10 12:52:00,70.2,32.7,24.66,ENE,66,5.8,6.3,25,0.00,,---,0.00,VWS V14.01,2013-06-10 18:52:00,
2013-06-10 12:57:00,71.2,33.6,24.66,NW,317,4.0,4.0,25,0.00,,---,0.00,VWS V14.01,2013-06-10 18:57:00,
2013-06-10 13:02:00,70.7,32.2,24.66,NNE,13,3.1,4.9,24,0.00,,---,0.00,VWS V14.01,2013-06-10 19:02:00,
2013-06-10 13:07:00,71.6,34.0,24.66,ENE,64,6.3,7.6,25,0.00,,---,0.00,VWS V14.01,2013-06-10 19:07:00,
2013-06-10 13:12:00,72.9,34.0,24.66,ENE,75,4.0,4.0,24,0.00,,---,0.00,VWS V14.01,2013-06-10 19:12:00,
2013-06-10 13:17:00,73.0,34.1,24.66,NNE,33,8.7,8.7,24,0.00,,---,0.00,VWS V14.01,2013-06-10 19:17:00,
2013-06-10 13:22:00,73.0,34.1,24.66,NW,317,2.7,4.0,24,0.00,,---,0.00,VWS V14.01,2013-06-10 19:22:00,
2013-06-10 13:27:00,72.7,33.8,24.66,ENE,65,5.8,5.8,24,0.00,,---,0.00,VWS V14.01,2013-06-10 19:27:00,
2013-06-10 13:32:00,73.6,33.5,24.66,East,80,4.0,5.4,23,0.00,,---,0.00,VWS V14.01,2013-06-10 19:32:00,
2013-06-10 13:37:00,72.0,32.2,24.63,SSE,147,6.3,7.6,23,0.00,,---,0.00,VWS V14.01,2013-06-10 19:37:00,
2013-06-10 13:42:00,70.7,32.2,24.63,NE,46,5.8,7.6,24,0.00,,---,0.00,VWS V14.01,2013-06-10 19:42:00,
2013-06-10 13:47:00,72.1,33.4,24.63,East,79,6.3,6.3,24,0.00,,---,0.00,VWS V14.01,2013-06-10 19:47:00,
2013-06-10 13:52:00,73.8,34.8,24.63,NE,48,8.7,8.7,24,0.00,,---,0.00,VWS V14.01,2013-06-10 19:52:00,
2013-06-10 13:57:00,74.5,34.3,24.63,WSW,241,2.7,4.0,23,0.00,,---,0.00,VWS V14.01,2013-06-10 19:57:00,
2013-06-10 14:02:00,74.7,34.4,24.63,NE,38,2.2,3.1,23,0.00,,---,0.00,VWS V14.01,2013-06-10 20:02:00,
2013-06-10 14:07:00,75.6,35.2,24.63,NE,51,2.7,5.8,23,0.00,,---,0.00,VWS V14.01,2013-06-10 20:07:00,
2013-06-10 14:12:00,76.3,34.7,24.63,North,2,3.6,3.6,22,0.00,,---,0.00,VWS V14.01,2013-06-10 20:12:00,
2013-06-10 14:17:00,75.9,34.4,24.63,East,80,8.1,8.1,22,0.00,,---,0.00,VWS V14.01,2013-06-10 20:17:00,
2013-06-10 14:22:00,75.7,34.2,24.63,ENE,73,6.3,6.3,22,0.00,,---,0.00,VWS V14.01,2013-06-10 20:22:00,
2013-06-10 14:27:00,76.5,34.8,24.63,NE,54,4.0,4.0,22,0.00,,---,0.00,VWS V14.01,2013-06-10 20:27:00,
2013-06-10 14:32:00,76.8,35.1,24.63,NE,45,4.0,8.1,22,0.00,,---,0.00,VWS V14.01,2013-06-10 20:32:00,
2013-06-10 14:37:00,77.5,35.7,24.63,NE,34,3.1,6.3,22,0.00,,---,0.00,VWS V14.01,2013-06-10 20:37:00,
2013-06-10 14:42:00,77.0,34.1,24.63,NE,52,8.3,8.3,21,0.00,,---,0.00,VWS V14.01,2013-06-10 20:42:00,
2013-06-10 14:47:00,77.0,35.3,24.63,North,0,2.2,6.3,22,0.00,,---,0.00,VWS V14.01,2013-06-10 20:47:00,
2013-06-10 14:52:00,77.0,35.3,24.63,NE,45,8.3,8.3,22,0.00,,---,0.00,VWS V14.01,2013-06-10 20:52:00,
2013-06-10 14:57:00,77.4,35.6,24.63,North,3,6.3,6.3,22,0.00,,---,0.00,VWS V14.01,2013-06-10 20:57:00,
2013-06-10 15:02:00,77.4,35.6,24.63,NNW,346,0.0,6.3,22,0.00,,---,0.00,VWS V14.01,2013-06-10 21:02:00,
2013-06-10 15:07:00,77.5,35.7,24.63,ENE,58,3.1,3.1,22,0.00,,---,0.00,VWS V14.01,2013-06-10 21:07:00,
2013-06-10 15:12:00,77.9,34.9,24.63,SE,131,4.9,8.3,21,0.00,,---,0.00,VWS V14.01,2013-06-10 21:12:00,
2013-06-10 15:17:00,78.1,35.0,24.63,NE,50,8.7,9.2,21,0.00,,---,0.00,VWS V14.01,2013-06-10 21:17:00,
2013-06-10 15:22:00,77.7,34.7,24.60,NW,322,5.8,8.1,21,0.00,,---,0.00,VWS V14.01,2013-06-10 21:22:00,
2013-06-10 15:27:00,77.9,36.0,24.60,NE,50,2.7,8.1,22,0.00,,---,0.00,VWS V14.01,2013-06-10 21:27:00,
2013-06-10 15:32:00,78.4,36.5,24.60,NE,53,4.9,8.3,22,0.00,,---,0.00,VWS V14.01,2013-06-10 21:32:00,
2013-06-10 15:37:00,79.0,35.8,24.60,ENE,62,5.8,8.3,21,0.00,,---,0.00,VWS V14.01,2013-06-10 21:37:00,
2013-06-10 15:42:00,78.8,35.6,24.60,NE,51,4.9,7.6,21,0.00,,---,0.00,VWS V14.01,2013-06-10 21:42:00,
2013-06-10 15:47:00,79.2,35.9,24.60,NE,50,5.8,8.1,21,0.00,,---,0.00,VWS V14.01,2013-06-10 21:47:00,
2013-06-10 15:52:00,79.0,35.8,24.60,NNE,32,6.3,10.5,21,0.00,,---,0.00,VWS V14.01,2013-06-10 21:52:00,
2013-06-10 15:57:00,78.6,35.5,24.60,ENE,62,5.4,9.2,21,0.00,,---,0.00,VWS V14.01,2013-06-10 21:57:00,
2013-06-10 16:02:00,78.3,35.2,24.60,NE,43,10.5,10.5,21,0.00,,---,0.00,VWS V14.01,2013-06-10 22:02:00,
2013-06-10 16:07:00,77.4,34.4,24.60,ENE,62,4.9,8.1,21,0.00,,---,0.00,VWS V14.01,2013-06-10 22:07:00,
2013-06-10 16:12:00,77.4,34.4,24.60,NE,48,11.0,11.0,21,0.00,,---,0.00,VWS V14.01,2013-06-10 22:12:00,
2013-06-10 16:17:00,78.3,35.2,24.60,ENE,59,5.4,10.1,21,0.00,,---,0.00,VWS V14.01,2013-06-10 22:17:00,
2013-06-10 16:22:00,78.3,35.2,24.60,NE,43,5.8,5.8,21,0.00,,---,0.00,VWS V14.01,2013-06-10 22:22:00,
2013-06-10 16:27:00,78.3,35.2,24.60,NE,46,3.6,6.3,21,0.00,,---,0.00,VWS V14.01,2013-06-10 22:27:00,
2013-06-10 16:32:00,78.3,35.2,24.60,NE,56,6.3,6.3,21,0.00,,---,0.00,VWS V14.01,2013-06-10 22:32:00,
2013-06-10 16:37:00,79.2,35.9,24.60,NE,51,4.9,7.6,21,0.00,,---,0.00,VWS V14.01,2013-06-10 22:37:00,
2013-06-10 16:42:00,79.5,36.2,24.60,NNE,31,8.1,10.1,21,0.00,,---,0.00,VWS V14.01,2013-06-10 22:42:00,
2013-06-10 16:47:00,79.0,34.5,24.60,NE,42,7.2,9.2,20,0.00,,---,0.00,VWS V14.01,2013-06-10 22:47:00,
2013-06-10 16:52:00,79.2,34.7,24.60,NNE,30,8.1,8.7,20,0.00,,---,0.00,VWS V14.01,2013-06-10 22:52:00,
2013-06-10 16:57:00,79.0,34.5,24.60,NNE,29,5.8,8.1,20,0.00,,---,0.00,VWS V14.01,2013-06-10 22:57:00,
2013-06-10 17:02:00,79.0,34.5,24.60,NNE,24,5.8,6.3,20,0.00,,---,0.00,VWS V14.01,2013-06-10 23:02:00,
2013-06-10 17:07:00,78.8,34.4,24.57,ENE,58,8.1,8.7,20,0.00,,---,0.00,VWS V14.01,2013-06-10 23:07:00,
2013-06-10 17:12:00,78.8,34.4,24.57,East,79,4.0,10.1,20,0.00,,---,0.00,VWS V14.01,2013-06-10 23:12:00,
2013-06-10 17:17:00,78.1,33.8,24.57,NE,54,8.3,11.0,20,0.00,,---,0.00,VWS V14.01,2013-06-10 23:17:00,
2013-06-10 17:22:00,77.7,34.7,24.57,NE,36,6.3,10.1,21,0.00,,---,0.00,VWS V14.01,2013-06-10 23:22:00,
2013-06-10 17:27:00,77.9,34.9,24.57,NNE,33,8.1,8.1,21,0.00,,---,0.00,VWS V14.01,2013-06-10 23:27:00,
2013-06-10 17:32:00,78.4,35.3,24.57,NNE,32,4.0,4.9,21,0.00,,---,0.00,VWS V14.01,2013-06-10 23:32:00,
2013-06-10 17:37:00,78.6,34.2,24.60,NE,50,7.6,7.6,20,0.00,,---,0.00,VWS V14.01,2013-06-10 23:37:00,
2013-06-10 17:42:00,77.7,33.5,24.60,North,5,8.1,11.9,20,0.00,,---,0.00,VWS V14.01,2013-06-10 23:42:00,
2013-06-10 17:47:00,77.0,32.9,24.60,ENE,63,6.3,6.3,20,0.00,,---,0.00,VWS V14.01,2013-06-10 23:47:00,
2013-06-10 17:52:00,77.2,33.0,24.60,ENE,57,12.3,12.3,20,0.00,,---,0.00,VWS V14.01,2013-06-10 23:52:00,
2013-06-10 17:57:00,77.4,33.2,24.60,ENE,64,7.6,7.6,20,0.00,,---,0.00,VWS V14.01,2013-06-10 23:57:00,
2013-06-10 18:02:00,77.9,33.6,24.60,NE,49,10.1,11.0,20,0.00,,---,0.00,VWS V14.01,2013-06-11 00:02:00,
2013-06-10 18:07:00,78.3,33.9,24.60,NNE,16,8.3,8.3,20,0.00,,---,0.00,VWS V14.01,2013-06-11 00:07:00,
2013-06-10 18:12:00,77.9,33.6,24.60,NE,50,2.7,5.4,20,0.00,,---,0.00,VWS V14.01,2013-06-11 00:12:00,
2013-06-10 18:17:00,77.5,33.3,24.60,NE,49,6.7,8.1,20,0.00,,---,0.00,VWS V14.01,2013-06-11 00:17:00,
2013-06-10 18:22:00,77.5,33.3,24.60,NE,43,5.8,5.8,20,0.00,,---,0.00,VWS V14.01,2013-06-11 00:22:00,
2013-06-10 18:27:00,77.0,32.9,24.60,NNE,20,5.4,6.3,20,0.00,,---,0.00,VWS V14.01,2013-06-11 00:27:00,
2013-06-10 18:32:00,76.5,32.5,24.60,NE,48,8.1,8.1,20,0.00,,---,0.00,VWS V14.01,2013-06-11 00:32:00,
2013-06-10 18:37:00,76.5,33.7,24.60,NE,37,2.7,2.7,21,0.00,,---,0.00,VWS V14.01,2013-06-11 00:37:00,
2013-06-10 18:42:00,76.5,32.5,24.60,NNW,335,7.6,7.6,20,0.00,,---,0.00,VWS V14.01,2013-06-11 00:42:00,
2013-06-10 18:47:00,76.3,32.3,24.60,NE,44,3.6,6.3,20,0.00,,---,0.00,VWS V14.01,2013-06-11 00:47:00,
2013-06-10 18:52:00,75.9,32.0,24.60,North,1,6.7,8.7,20,0.00,,---,0.00,VWS V14.01,2013-06-11 00:52:00,
2013-06-10 18:57:00,75.2,31.4,24.60,NE,46,2.7,4.0,20,0.00,,---,0.00,VWS V14.01,2013-06-11 00:57:00,
2013-06-10 19:02:00,74.5,32.0,24.60,NNE,31,2.7,6.7,21,0.00,,---,0.00,VWS V14.01,2013-06-11 01:02:00,
2013-06-10 19:07:00,74.1,31.7,24.60,NE,41,5.4,5.8,21,0.00,,---,0.00,VWS V14.01,2013-06-11 01:07:00,
2013-06-10 19:12:00,73.8,31.4,24.60,NE,35,0.0,3.1,21,0.00,,---,0.00,VWS V14.01,2013-06-11 01:12:00,
2013-06-10 19:17:00,73.4,31.1,24.60,NNE,18,3.6,5.8,21,0.00,,---,0.00,VWS V14.01,2013-06-11 01:17:00,
2013-06-10 19:22:00,73.0,32.0,24.60,NE,37,2.2,5.4,22,0.00,,---,0.00,VWS V14.01,2013-06-11 01:22:00,
2013-06-10 19:27:00,72.9,31.8,24.60,NNE,18,0.0,4.9,22,0.00,,---,0.00,VWS V14.01,2013-06-11 01:27:00,
2013-06-10 19:32:00,72.9,31.8,24.60,NE,46,3.1,3.1,22,0.00,,---,0.00,VWS V14.01,2013-06-11 01:32:00,
2013-06-10 19:37:00,72.7,31.7,24.60,North,353,3.6,5.8,22,0.00,,---,0.00,VWS V14.01,2013-06-11 01:37:00,
2013-06-10 19:42:00,72.3,31.4,24.60,NW,320,0.0,0.0,22,0.00,,---,0.00,VWS V14.01,2013-06-11 01:42:00,
2013-06-10 19:47:00,72.1,31.2,24.60,NNE,33,2.2,2.2,22,0.00,,---,0.00,VWS V14.01,2013-06-11 01:47:00,
2013-06-10 19:52:00,72.0,31.1,24.60,NE,51,0.0,0.0,22,0.00,,---,0.00,VWS V14.01,2013-06-11 01:52:00,
2013-06-10 19:57:00,71.8,30.9,24.60,NE,51,0.0,0.0,22,0.00,,---,0.00,VWS V14.01,2013-06-11 01:57:00,
2013-06-10 20:02:00,71.8,30.9,24.60,NE,48,3.6,3.6,22,0.00,,---,0.00,VWS V14.01,2013-06-11 02:02:00,
2013-06-10 20:07:00,71.6,30.8,24.63,NE,50,0.0,0.0,22,0.00,,---,0.00,VWS V14.01,2013-06-11 02:07:00,
2013-06-10 20:12:00,71.2,30.5,24.63,NE,41,0.0,4.0,22,0.00,,---,0.00,VWS V14.01,2013-06-11 02:12:00,
2013-06-10 20:17:00,71.1,30.3,24.63,NE,44,0.0,0.0,22,0.00,,---,0.00,VWS V14.01,2013-06-11 02:17:00,
2013-06-10 20:22:00,70.9,30.2,24.63,NNW,336,0.0,0.0,22,0.00,,---,0.00,VWS V14.01,2013-06-11 02:22:00,
2013-06-10 20:27:00,70.7,30.0,24.63,NNW,343,0.0,0.0,22,0.00,,---,0.00,VWS V14.01,2013-06-11 02:27:00,
2013-06-10 20:32:00,70.5,29.9,24.63,WNW,295,5.4,5.4,22,0.00,,---,0.00,VWS V14.01,2013-06-11 02:32:00,
2013-06-10 20:37:00,70.3,29.7,24.63,NW,319,0.0,0.0,22,0.00,,---,0.00,VWS V14.01,2013-06-11 02:37:00,
2013-06-10 20:42:00,70.2,29.6,24.63,NW,319,0.0,0.0,22,0.00,,---,0.00,VWS V14.01,2013-06-11 02:42:00,
2013-06-10 20:47:00,70.0,29.4,24.63,NW,319,0.0,0.0,22,0.00,,---,0.00,VWS V14.01,2013-06-11 02:47:00,
2013-06-10 20:52:00,69.8,29.3,24.63,NW,319,0.0,0.0,22,0.00,,---,0.00,VWS V14.01,2013-06-11 02:52:00,
2013-06-10 20:57:00,69.8,29.3,24.63,NW,318,0.0,0.0,22,0.00,,---,0.00,VWS V14.01,2013-06-11 02:57:00,
2013-06-10 21:02:00,69.6,29.1,24.63,WNW,295,0.0,0.0,22,0.00,,---,0.00,VWS V14.01,2013-06-11 03:02:00,
2013-06-10 21:07:00,69.6,29.1,24.63,WNW,295,0.0,0.0,22,0.00,,---,0.00,VWS V14.01,2013-06-11 03:07:00,
2013-06-10 21:12:00,69.4,29.0,24.63,WNW,298,0.0,0.0,22,0.00,,---,0.00,VWS V14.01,2013-06-11 03:12:00,
2013-06-10 21:17:00,69.3,28.8,24.63,ENE,78,4.9,4.9,22,0.00,,---,0.00,VWS V14.01,2013-06-11 03:17:00,
2013-06-10 21:22:00,68.9,28.5,24.63,ENE,70,3.1,5.8,22,0.00,,---,0.00,VWS V14.01,2013-06-11 03:22:00,
2013-06-10 21:27:00,68.5,29.3,24.63,NE,49,2.7,4.0,23,0.00,,---,0.00,VWS V14.01,2013-06-11 03:27:00,
2013-06-10 21:32:00,68.0,28.9,24.63,NE,56,2.7,3.6,23,0.00,,---,0.00,VWS V14.01,2013-06-11 03:32:00,
2013-06-10 21:37:00,67.6,28.5,24.63,ENE,75,0.0,0.0,23,0.00,,---,0.00,VWS V14.01,2013-06-11 03:37:00,
2013-06-10 21:42:00,67.5,28.4,24.63,ENE,75,0.0,0.0,23,0.00,,---,0.00,VWS V14.01,2013-06-11 03:42:00,
2013-06-10 21:47:00,67.1,28.1,24.63,ENE,75,0.0,0.0,23,0.00,,---,0.00,VWS V14.01,2013-06-11 03:47:00,
2013-06-10 21:52:00,66.7,27.8,24.63,ENE,75,0.0,0.0,23,0.00,,---,0.00,VWS V14.01,2013-06-11 03:52:00,
2013-06-10 21:57:00,66.6,27.6,24.63,ENE,75,0.0,0.0,23,0.00,,---,0.00,VWS V14.01,2013-06-11 03:57:00,
2013-06-10 22:01:00,66.4,27.5,24.63,East,86,0.0,0.0,23,0.00,,---,0.00,VWS V14.01,2013-06-11 04:01:00,
2013-06-10 22:06:00,66.0,28.2,24.63,SE,136,0.0,0.0,24,0.00,,---,0.00,VWS V14.01,2013-06-11 04:06:00,
2013-06-10 22:11:00,65.8,28.1,24.63,SE,137,0.0,0.0,24,0.00,,---,0.00,VWS V14.01,2013-06-11 04:11:00,
2013-06-10 22:17:00,65.8,28.1,24.63,SE,137,0.0,0.0,24,0.00,,---,0.00,VWS V14.01,2013-06-11 04:17:00,
2013-06-10 22:22:00,66.0,28.2,24.63,SE,140,0.0,0.0,24,0.00,,---,0.00,VWS V14.01,2013-06-11 04:22:00,
2013-06-10 22:27:00,66.2,27.3,24.63,SE,140,0.0,0.0,23,0.00,,---,0.00,VWS V14.01,2013-06-11 04:27:00,
2013-06-10 22:32:00,66.0,28.2,24.63,SE,140,0.0,0.0,24,0.00,,---,0.00,VWS V14.01,2013-06-11 04:32:00,
2013-06-10 22:37:00,65.8,28.1,24.63,SE,140,0.0,0.0,24,0.00,,---,0.00,VWS V14.01,2013-06-11 04:37:00,
2013-06-10 22:42:00,65.5,27.8,24.63,SE,140,0.0,0.0,24,0.00,,---,0.00,VWS V14.01,2013-06-11 04:42:00,
2013-06-10 22:47:00,65.3,27.6,24.63,West,270,4.0,5.4,24,0.00,,---,0.00,VWS V14.01,2013-06-11 04:47:00,
2013-06-10 22:52:00,65.1,27.5,24.66,West,266,2.7,3.6,24,0.00,,---,0.00,VWS V14.01,2013-06-11 04:52:00,
2013-06-10 22:57:00,64.9,27.3,24.66,WNW,285,4.0,4.0,24,0.00,,---,0.00,VWS V14.01,2013-06-11 04:57:00,
2013-06-10 23:02:00,64.9,28.3,24.66,NW,304,4.0,4.0,25,0.00,,---,0.00,VWS V14.01,2013-06-11 05:02:00,
2013-06-10 23:07:00,64.8,28.1,24.63,WNW,291,3.6,3.6,25,0.00,,---,0.00,VWS V14.01,2013-06-11 05:07:00,
2013-06-10 23:12:00,64.6,28.0,24.63,WNW,282,4.9,4.9,25,0.00,,---,0.00,VWS V14.01,2013-06-11 05:12:00,
2013-06-10 23:17:00,64.2,28.6,24.63,West,265,5.4,5.4,26,0.00,,---,0.00,VWS V14.01,2013-06-11 05:17:00,
2013-06-10 23:22:00,63.9,29.3,24.66,West,274,4.9,5.4,27,0.00,,---,0.00,VWS V14.01,2013-06-11 05:22:00,
2013-06-10 23:27:00,63.7,29.1,24.66,WNW,286,4.0,4.0,27,0.00,,---,0.00,VWS V14.01,2013-06-11 05:27:00,
2013-06-10 23:32:00,63.7,30.0,24.66,WNW,289,2.7,2.7,28,0.00,,---,0.00,VWS V14.01,2013-06-11 05:32:00,
2013-06-10 23:37:00,63.3,29.7,24.66,SW,233,4.0,4.0,28,0.00,,---,0.00,VWS V14.01,2013-06-11 05:37:00,
2013-06-10 23:42:00,63.3,29.7,24.66,WSW,238,0.0,2.7,28,0.00,,---,0.00,VWS V14.01,2013-06-11 05:42:00,
2013-06-10 23:47:00,63.3,29.7,24.66,WSW,258,3.1,3.6,28,0.00,,---,0.00,VWS V14.01,2013-06-11 05:47:00,
2013-06-10 23:52:00,63.7,30.0,24.66,West,267,0.0,0.0,28,0.00,,---,0.00,VWS V14.01,2013-06-11 05:52:00,
2013-06-10 23:57:00,64.0,29.4,24.66,WSW,258,2.2,2.7,27,0.00,,---,0.00,VWS V14.01,2013-06-11 05:57:00,